Regional Weather Roundup
Issued by NWS

Home | Current Version | Previous Version | Graphics & Text | Print | Product List | Glossary On
Versions: 1 2 3 4 5 6 7 8 9 10 11 12 13 14 15 16 17 18 19 20 21 22 23 24 25 26 27 28 29 30 31 32 33 34 35 36 37 38 39 40 41 42 43 44 45 46 47 48 49 50
000
ASUS43 KMKX 180000
RWRWI

WISCONSIN REGIONAL WEATHER ROUNDUP
NATIONAL WEATHER SERVICE MILWAUKEE/SULLIVAN WI
600 PM CST TUE JAN 17 2017

NOTE: "FAIR" INDICATES FEW OR NO CLOUDS BELOW 12,000 FEET WITH NO
SIGNIFICANT WEATHER AND/OR OBSTRUCTIONS TO VISIBILITY.

WIZ001-002-006>008-014>016-023>028-180100-
NORTHWEST WISCONSIN

CITY           SKY/WX    TMP DP  RH WIND       PRES   REMARKS
SUPERIOR ARPT  CLEAR     26  24  91 CALM      29.91F
ASHLAND        CLEAR     24  22  91 S3        29.92F
6HR MIN TEMP:  24; 6HR MAX TEMP:  38;

HAYWARD        CLEAR     29  22  75 CALM      29.92F
6HR MIN TEMP:  28; 6HR MAX TEMP:  45;

SIREN          CLEAR     31  24  75 SW6       29.95S WCI  25
CUMBERLAND     CLEAR     32  28  86 SW5       29.94F WCI  27
RICE LAKE      CLEAR     34  29  83 SW3       29.96S
CHETEK         NOT AVBL
LADYSMITH      CLEAR     35  31  86 CALM      29.94S
EAU CLAIRE     NOT AVBL
MENOMONIE      CLEAR     34  30  87 W5        29.98R WCI  29
NEW RICHMOND   MOCLDY    31  30  99 SW6       29.97F FOG     WCI  25
OSCEOLA        CLOUDY    32  32 100 SW5       30.00F WCI  28
$$

WIZ003>005-009-010-017-018-180100-
NORTH CENTRAL WISCONSIN

CITY           SKY/WX    TMP DP  RH WIND       PRES   REMARKS
MANITOWISH WTR NOT AVBL
ARBOR VITAE    CLEAR     32  29  90 CALM      29.90R
WOODRUFF       CLEAR     32  29  90 CALM      29.90R
RHINELANDER    CLOUDY    38  31  76 CALM      29.90R
6HR MIN TEMP:  37; 6HR MAX TEMP:  41;

EAGLE RIVER    CLEAR     33  29  85 CALM      29.89R
LAND O LAKES   CLEAR     30  26  84 CALM      29.90S
PHILLIPS       CLEAR     30  28  94 CALM      29.90S
6HR MIN TEMP:  30; 6HR MAX TEMP:  43;

TOMAHAWK       MOCLDY    31  29  92 CALM      29.91R
MEDFORD        CLEAR     35  33  92 W6        29.91R WCI  30
MERRILL        CLOUDY    35  35 100 CALM        N/A
6HR MIN TEMP:  35; 6HR MAX TEMP:  38;

$$

WIZ029-030-035-036-043>047-180100-
CENTRAL WISCONSIN

CITY           SKY/WX    TMP DP  RH WIND       PRES   REMARKS
WAUSAU         CLOUDY    35  34  96 NW5       29.90R WCI  31
6HR MIN TEMP:  34; 6HR MAX TEMP:  36;

MOSINEE        CLOUDY    34  34 100 W5        29.92R FOG     WCI  30
MARSHFIELD     CLOUDY    35  32  88 NW8       29.91R WCI  29
6HR MIN TEMP:  34; 6HR MAX TEMP:  36; 6HR PCP:  0.09;

STEVENS POINT  FOG       33  33 100 CALM      29.93R VSB 1
WAUPACA        CLOUDY    36  34  92 CALM      29.93R
WAUTOMA        CLOUDY    34  33  96 W3        29.94S FOG
6HR MIN TEMP:  34; 6HR MAX TEMP:  36;

WISC RAPIDS    CLOUDY    34  34 100 CALM      29.94R FOG
6HR MIN TEMP:  34; 6HR MAX TEMP:  35; 6HR PCP: TRACE;

CAMP DOUGLAS   NOT AVBL
$$

WIZ011>013-019>022-031-037>040-048>050-180100-
NORTHEAST WISCONSIN

CITY           SKY/WX    TMP DP  RH WIND       PRES   REMARKS
ANTIGO         CLOUDY    33  33 100 NW3       29.90R
SHAWANO        CLOUDY    35  33  94 CALM      29.91S
OCONTO         NOT AVBL
STURGEON BAY   MIX PCPN  32  32 100 N12       29.90R VSB 1/2 WCI  23
6HR MIN TEMP:  32; 6HR MAX TEMP:  36; 6HR PCP: TRACE;

GREEN BAY      CLOUDY    35  35 100 N5        29.91R FOG     WCI  31
6HR MIN TEMP:  35; 6HR MAX TEMP:  36;

MANITOWOC      NOT AVBL
APPLETON       FOG       34  34 100 NW7       29.90R VSB 1/2 WCI  28
CLINTONVILLE   FOG       34  32  93 NW3       29.91S VSB 1
OSHKOSH        CLOUDY    34  32  92 NW7       29.92R FOG     WCI  28
6HR MIN TEMP:  34; 6HR MAX TEMP:  34; 6HR PCP:  0.09;

$$

WIZ032>034-041-042-053>061-180100-
SOUTHWEST WISCONSIN

CITY           SKY/WX    TMP DP  RH WIND       PRES   REMARKS
LA CROSSE      CLOUDY    36  34  92 NW6       29.98R WCI  31
6HR MIN TEMP:  35; 6HR MAX TEMP:  36; 6HR PCP:  0.11;

SPARTA         CLOUDY    33  33 100 W3        29.97R FOG
VIROQUA        CLOUDY    32  32 100 NW7       29.95R WCI  26
6HR MIN TEMP:  32; 6HR MAX TEMP:  33;

BOSCOBEL       CLOUDY    34  32  92 S3        29.98S
6HR MIN TEMP:  33; 6HR MAX TEMP:  36; 6HR PCP:  0.05;

PRAIRIE DU CHI LGT RAIN  33  32  96 W3        29.98S
PLATTEVILLE    CLOUDY    33  33 100 W8        29.97R WCI  26
$$

WIZ056-057-062-063-064-067-068-180100-
SOUTH CENTRAL WISCONSIN

CITY           SKY/WX    TMP DP  RH WIND       PRES   REMARKS
REEDSBURG      NOT AVBL
BARABOO/DELLS  LGT RAIN  33  33  99 W5        29.94R WCI  28
LONE ROCK      NOT AVBL
MINERAL POINT  LGT SNOW  34  34 100 W7        29.95R WCI  28
MADISON        DRIZZLE   34  33  96 W6        29.95R FOG     WCI  29
6HR MIN TEMP:  34; 6HR MAX TEMP:  35; 6HR PCP: TRACE;

MIDDLETON      CLOUDY    35  35 100 W6        29.94R WCI  30
WATERTOWN      CLOUDY    33  33 100 W3        29.92R FOG
MONROE         CLOUDY    32  32 100 W8        29.94R FOG     WCI  25
JANESVILLE     CLOUDY    36  36 100 W10       29.94R FOG     WCI  28
$$

WIZ051-052-058>065-066-070>072-180100-
SOUTHEAST WISCONSIN

CITY           SKY/WX    TMP DP  RH WIND       PRES   REMARKS
MILWAUKEE      DRIZZLE   36  34  92 W10       29.92R FOG     WCI  28
6HR MIN TEMP:  36; 6HR MAX TEMP:  40; 6HR PCP: TRACE;

WAUKESHA       CLOUDY    32  32 100 W8        29.93R FOG     WCI  25
MILWAUKEE/TIMM CLOUDY    34  32  93 W7        29.92R FOG     WCI  28
RACINE         CLOUDY    36  33  89 W9        29.94R FOG     WCI  29
KENOSHA        CLOUDY    35  34  96 W9        29.93R FOG     WCI  28
6HR MIN TEMP:  35; 6HR MAX TEMP:  38;

FOND DU LAC    LGT RAIN  34  31  88 NW5       29.92R WCI  30
6HR MIN TEMP:  34; 6HR MAX TEMP:  34; 6HR PCP:  0.01;

SHEBOYGAN      CLOUDY    34  32  92 W6        29.90R WCI  29
6HR MIN TEMP:  34; 6HR MAX TEMP:  35; 6HR PCP:  0.02;

WEST BEND      RAIN      32  32 100 W6        29.90R VSB 1   WCI  26
JUNEAU         LGT RAIN  32  32  99 W3        29.93R VSB 1/2
$$

LSZ147-162-180100-
LAKE SUPERIOR

STATION/POSITION TIME  TEMP    WIND        PRES    WAVE
                       AIR SEA DIR/SP/G            HT/PER
                 (UTC) (F)     (DEG/KT/KT) (MB)    (FT/S)
DEVILS ISLAND    2300   31     190/  6/  7 1013.8F
PORT WING        2340   27     150/  2/  3 1013.2F
SAXON HARBOR     2340   26     180/  3/  3 1012.9F
$$

LMZ867-665-643>646-180100-
LAKE MICHIGAN

STATION/POSITION TIME  TEMP    WIND        PRES    WAVE
                       AIR SEA DIR/SP/G            HT/PER
                 (UTC) (F)     (DEG/KT/KT) (MB)    (FT/S)
NORTHPORT PIER   2340   33      20/  7/ 10 1012.5S
SISTER BAY       2150   33      30/  8/ 10   N/A
ALGOMA LAKESHORE 2238          330/  9/ 12   N/A
KEWAUNEE LAKESHO 2330   34     320/  7/ 10 1011.6R
SHEBOYGAN LAKESH 2300   35     300/  8/  9 1012.3R
PORT WASHINGTON  2340   35     280/  5/  8 1013.9R
MILWAUKEE LAKESH 2330   36     290/ 10/ 11   N/A
KENOSHA   LAKESH 2300   36     260/  9/ 13 1013.2
$$

TC  - TEMPERATURE IN CELSIUS
VSB - VISIBILITY IN STATUTE MILES
WCI - WIND CHILL INDEX
HX  - HEAT INDEX




USA.gov is the U.S. government's official web portal to all federal, state and local government web resources and services.